Hill Air Force Base, UT

12:06 AM MST on February 12, 2016 (GMT -0700)
Hill Air Force Base

Weather History for KHIF - January, 2013

Change the Weather History Date:

Tuesday, January 8, 2013

  Actual Average Record
Temperature  
Mean Temperature 24 °F -  
Max Temperature 31 °F 34 °F 45 °F (2015)
Min Temperature 19 °F 22 °F 12 °F (2008)
Degree Days  
Heating Degree Days 42    
Moisture  
Dew Point 18 °F    
Average Humidity 77    
Maximum Humidity 83    
Minimum Humidity 68    
Precipitation  
Precipitation 0.00 in - - ()
Sea Level Pressure  
Sea Level Pressure 30.36 in    
Wind  
Wind Speed 3 mph (SSW)    
Max Wind Speed 8 mph    
Max Gust Speed -    
Visibility 6 miles    
Events      
Averages and records for this station are not official NWS values.
T = Trace of Precipitation, MM = Missing Value Source: NWS Daily Summary

Daily Weather History Graph

Daily Weather History Graph

Search for Another Location

Airport or City:

Trip Planner

Search our weather history database for the weather conditions in past years. The results will help you decide how hot, cold, wet, or windy it might be!

Date:

Astronomy

Jan. 08, 2013 Rise Set
Actual Time 7:52 AM MST 5:16 PM MST
Civil Twilight 7:22 AM MST 5:47 PM MST
Nautical Twilight 6:47 AM MST 6:21 PM MST
Astronomical Twilight 6:14 AM MST 6:55 PM MST
Moon 4:29 AM MST (1/8) 2:22 PM MST (1/8)
Length of Visible Light 10h 25m
Length of Day
9h 23m
Waning Crescent, 13% of the Moon is Illuminated
Jan 8
Waning Crescent
Jan 11
New
Jan 18
First Quarter
Jan 26
Full
Feb 3
Last Quarter

Hourly Weather History & Observations

Time (MST) Temp. Windchill Dew Point Humidity Pressure Visibility Wind Dir Wind Speed Gust Speed Precip Events Conditions
12:58 AM 19.4 °F - 15.1 °F 83% 30.31 in 6.0 mi NNW 1.2 mph - N/A   Haze
1:58 AM 20.7 °F 11.0 °F 14.9 °F 78% 30.29 in 9.0 mi SSE 8.1 mph - N/A   Overcast
2:18 AM 21.2 °F - 14.0 °F 74% 30.20 in 9.0 mi SSW 2.3 mph - N/A   Overcast
2:58 AM 21.0 °F - 15.1 °F 78% 30.31 in 8.0 mi SSW 2.3 mph - N/A   Overcast
3:58 AM 21.4 °F 13.8 °F 15.3 °F 77% 30.29 in 8.0 mi SSE 5.8 mph - N/A   Overcast
4:58 AM 21.2 °F 14.9 °F 16.0 °F 80% 30.31 in 7.0 mi NNW 4.6 mph - N/A   Overcast
5:58 AM 21.4 °F - 16.2 °F 80% 30.32 in 6.0 mi NW 2.3 mph - N/A   Haze
6:58 AM 22.5 °F - 16.5 °F 78% 30.33 in 7.0 mi Calm Calm - N/A   Overcast
7:58 AM 21.4 °F - 15.4 °F 78% 30.35 in 6.0 mi Calm Calm - N/A   Haze
8:58 AM 22.1 °F 17.4 °F 16.0 °F 77% 30.38 in 5.0 mi SE 3.5 mph - N/A   Haze
9:58 AM 22.8 °F - 16.9 °F 78% 30.38 in 5.0 mi SE 2.3 mph - N/A   Haze
10:58 AM 24.4 °F - 17.1 °F 73% 30.40 in 3.0 mi WSW 1.2 mph - N/A   Haze
11:43 AM 24.8 °F 20.5 °F 19.4 °F 80% 30.28 in 3.0 mi South 3.5 mph - N/A   Haze
11:58 AM 25.2 °F 18.3 °F 17.6 °F 73% 30.37 in 5.0 mi South 5.8 mph - N/A   Haze
12:58 PM 25.9 °F - 17.6 °F 71% 30.38 in 5.0 mi Calm Calm - N/A   Haze
1:58 PM 27.1 °F - 18.1 °F 69% 30.36 in 5.0 mi SSW 1.2 mph - N/A   Haze
2:58 PM 27.7 °F - 18.5 °F 68% 30.37 in 5.0 mi Calm Calm - N/A   Haze
3:58 PM 27.9 °F - 19.4 °F 71% 30.39 in 5.0 mi SE 1.2 mph - N/A   Haze
4:58 PM 27.7 °F 23.8 °F 21.2 °F 77% 30.40 in 3.0 mi WNW 3.5 mph - N/A   Haze
5:58 PM 26.6 °F - 21.2 °F 80% 30.41 in 3.0 mi West 2.3 mph - N/A   Haze
6:08 PM 26.6 °F - 21.2 °F 80% 30.32 in 6.0 mi ENE 1.2 mph - N/A   Haze
6:58 PM 27.7 °F - 21.9 °F 79% 30.41 in 6.0 mi Calm Calm - N/A   Haze
7:58 PM 27.1 °F 23.2 °F 21.4 °F 79% 30.43 in 6.0 mi WNW 3.5 mph - N/A   Haze
8:58 PM 27.1 °F - 21.6 °F 80% 30.44 in 6.0 mi Calm Calm - N/A   Haze
9:58 PM 28.2 °F 23.1 °F 21.6 °F 76% 30.44 in 7.0 mi SSW 4.6 mph - N/A   Overcast
10:58 PM 28.4 °F - 21.9 °F 77% 30.44 in 6.0 mi East 2.3 mph - N/A   Haze
11:58 PM 31.1 °F 27.7 °F 23.9 °F 75% 30.45 in 10.0 mi South 3.5 mph - N/A   Overcast